KAC613B OKKK-OBBI

Flight info

Callsign KAC613B
Flight time 0h 47m
Altitude 27000
Route BOXIK B416 IMDOX P975 LONOS L703 KOBOK
Aircraft A320/M-SDE3FGHIRWY/LB1

Departure

Time 2026-04-27 16:58
Airport Kuwait International Airport (OKKK)

Arrival

Time 2026-04-27 17:46
Airport Bahrain International Airport (OBBI)
Time Latitude Longitude Altitude Speed Heading
2026-04-27 16:21 29.24455 47.96321 167 ft 0 kts 65°
2026-04-27 16:48 29.24450 47.96309 167 ft 2 kts 65°
2026-04-27 16:49 29.24435 47.96275 166 ft 2 kts 63°
2026-04-27 16:49 29.24428 47.96259 166 ft 2 kts 62°
2026-04-27 16:49 29.24420 47.96242 165 ft 2 kts 75°
2026-04-27 16:49 29.24420 47.96224 165 ft 2 kts 107°
2026-04-27 16:50 29.24426 47.96206 165 ft 2 kts 136°
2026-04-27 16:50 29.24434 47.96198 164 ft 0 kts 159°
2026-04-27 16:51 29.24401 47.96215 164 ft 7 kts 155°
2026-04-27 16:51 29.24347 47.96244 164 ft 10 kts 155°
2026-04-27 16:51 29.24276 47.96282 164 ft 12 kts 155°
2026-04-27 16:52 29.24194 47.96321 164 ft 12 kts 175°
2026-04-27 16:52 29.24148 47.96268 162 ft 7 kts 245°
2026-04-27 16:52 29.24142 47.96252 161 ft 0 kts 245°
2026-04-27 16:55 29.24141 47.96252 161 ft 0 kts 245°
2026-04-27 16:57 29.24141 47.96251 161 ft 0 kts 245°
2026-04-27 16:57 29.24128 47.96220 160 ft 10 kts 241°
2026-04-27 16:57 29.24022 47.96189 160 ft 18 kts 177°
2026-04-27 16:57 29.23883 47.96242 160 ft 25 kts 154°
2026-04-27 16:58 29.23532 47.96431 162 ft 89 kts 155°
2026-04-27 16:58 29.22797 47.96822 162 ft 142 kts 155°
2026-04-27 16:58 29.21793 47.97360 410 ft 164 kts 154°
2026-04-27 16:58 29.20751 47.97884 1074 ft 163 kts 158°
2026-04-27 16:59 29.19696 47.98429 1580 ft 175 kts 158°
2026-04-27 16:59 29.18530 47.99065 1826 ft 197 kts 157°
2026-04-27 16:59 29.17389 48.00068 2099 ft 221 kts 129°
2026-04-27 16:59 29.16863 48.01839 2381 ft 254 kts 101°
2026-04-27 17:00 29.16630 48.05370 3355 ft 275 kts 97°
2026-04-27 17:00 29.16503 48.08329 4411 ft 282 kts 97°
2026-04-27 17:00 29.16405 48.10584 5195 ft 286 kts 97°
2026-04-27 17:01 29.16296 48.12875 5999 ft 290 kts 97°
2026-04-27 17:01 29.16179 48.15163 6754 ft 294 kts 97°
2026-04-27 17:01 29.16052 48.17514 7500 ft 299 kts 96°
2026-04-27 17:01 29.15917 48.19905 8245 ft 304 kts 96°
2026-04-27 17:02 29.15778 48.22335 8986 ft 308 kts 96°
2026-04-27 17:02 29.15637 48.24778 9829 ft 308 kts 96°
2026-04-27 17:02 29.15496 48.27258 10354 ft 321 kts 95°
2026-04-27 17:02 29.15338 48.29900 10559 ft 344 kts 98°
2026-04-27 17:03 29.14839 48.32640 10850 ft 358 kts 110°
2026-04-27 17:03 29.13815 48.35266 11382 ft 364 kts 123°
2026-04-27 17:03 29.12328 48.37615 11997 ft 366 kts 134°
2026-04-27 17:03 29.10642 48.39822 12658 ft 371 kts 134°
2026-04-27 17:04 29.08940 48.42057 13314 ft 375 kts 134°
2026-04-27 17:04 29.07217 48.44315 13936 ft 379 kts 134°
2026-04-27 17:04 29.05481 48.46587 14631 ft 380 kts 134°
2026-04-27 17:04 29.03736 48.48864 15262 ft 383 kts 134°
2026-04-27 17:05 29.01971 48.51165 15851 ft 387 kts 134°
2026-04-27 17:05 29.00188 48.53492 16429 ft 391 kts 134°
2026-04-27 17:05 28.98387 48.55847 16996 ft 396 kts 134°
2026-04-27 17:05 28.96568 48.58225 17556 ft 400 kts 134°
2026-04-27 17:06 28.94723 48.60633 18105 ft 404 kts 134°
2026-04-27 17:06 28.92858 48.63061 18596 ft 408 kts 135°
2026-04-27 17:06 28.90980 48.65503 19095 ft 411 kts 135°
2026-04-27 17:06 28.89085 48.67966 19574 ft 414 kts 135°
2026-04-27 17:07 28.87174 48.70449 20047 ft 418 kts 135°
2026-04-27 17:07 28.85250 48.72950 20511 ft 421 kts 135°
2026-04-27 17:07 28.83338 48.75434 20992 ft 424 kts 135°
2026-04-27 17:07 28.81365 48.78010 21468 ft 427 kts 134°
2026-04-27 17:08 28.79635 48.80798 21932 ft 435 kts 124°
2026-04-27 17:08 28.78168 48.83796 22360 ft 439 kts 123°
2026-04-27 17:08 28.76679 48.86846 22791 ft 442 kts 123°
2026-04-27 17:08 28.75177 48.89919 23226 ft 446 kts 123°
2026-04-27 17:09 28.73659 48.93019 23608 ft 449 kts 123°
2026-04-27 17:09 28.72129 48.96131 23943 ft 452 kts 123°
2026-04-27 17:09 28.70578 48.99278 24155 ft 459 kts 123°
2026-04-27 17:09 28.68996 49.02483 24276 ft 468 kts 123°
2026-04-27 17:10 28.67385 49.05747 24393 ft 477 kts 123°
2026-04-27 17:10 28.65742 49.09071 24513 ft 485 kts 123°
2026-04-27 17:10 28.64073 49.12443 24632 ft 492 kts 123°
2026-04-27 17:10 28.62387 49.15860 24789 ft 498 kts 123°
2026-04-27 17:11 28.60667 49.19300 25015 ft 499 kts 126°
2026-04-27 17:11 28.56113 49.25111 25445 ft 489 kts 148°
2026-04-27 17:11 28.53290 49.27223 25680 ft 483 kts 158°
2026-04-27 17:12 28.47712 49.31523 26167 ft 499 kts 144°
2026-04-27 17:12 28.45115 49.34165 26419 ft 501 kts 144°
2026-04-27 17:12 28.42515 49.36821 26663 ft 503 kts 145°
2026-04-27 17:13 28.39903 49.39467 26804 ft 503 kts 145°
2026-04-27 17:13 28.37279 49.42097 26837 ft 503 kts 146°
2026-04-27 17:13 28.34642 49.44713 26833 ft 503 kts 146°
2026-04-27 17:13 28.32008 49.47317 26831 ft 502 kts 146°
2026-04-27 17:14 28.29369 49.49918 26833 ft 502 kts 146°
2026-04-27 17:14 28.26734 49.52509 26826 ft 497 kts 146°
2026-04-27 17:14 28.24185 49.55027 26828 ft 477 kts 146°
2026-04-27 17:14 28.21707 49.57470 26829 ft 468 kts 147°
2026-04-27 17:15 28.19204 49.59803 26829 ft 463 kts 149°
2026-04-27 17:15 28.16657 49.62025 26833 ft 461 kts 151°
2026-04-27 17:15 28.14085 49.64178 26832 ft 460 kts 152°
2026-04-27 17:15 28.11499 49.66312 26830 ft 460 kts 152°
2026-04-27 17:16 28.08913 49.68454 26807 ft 460 kts 151°
2026-04-27 17:16 28.06345 49.70610 26830 ft 459 kts 151°
2026-04-27 17:16 28.03784 49.72773 26830 ft 458 kts 152°
2026-04-27 17:16 28.01197 49.74876 26839 ft 457 kts 153°
2026-04-27 17:17 27.98586 49.76922 26833 ft 456 kts 153°
2026-04-27 17:17 27.95960 49.78934 26825 ft 456 kts 154°
2026-04-27 17:17 27.93329 49.80935 26822 ft 456 kts 154°
2026-04-27 17:18 27.88066 49.84962 26799 ft 457 kts 153°
2026-04-27 17:18 27.85469 49.86968 26802 ft 457 kts 153°
2026-04-27 17:18 27.82844 49.89005 26805 ft 458 kts 153°
2026-04-27 17:18 27.80222 49.91048 26808 ft 458 kts 153°
2026-04-27 17:19 27.77598 49.93094 26811 ft 458 kts 153°
2026-04-27 17:19 27.74969 49.95138 26810 ft 458 kts 153°
2026-04-27 17:19 27.72343 49.97170 26798 ft 458 kts 153°
2026-04-27 17:19 27.69714 49.99195 26799 ft 458 kts 153°
2026-04-27 17:20 27.67078 50.01221 26801 ft 458 kts 153°
2026-04-27 17:20 27.64445 50.03246 26803 ft 459 kts 153°
2026-04-27 17:20 27.61806 50.05277 26802 ft 459 kts 153°
2026-04-27 17:20 27.59166 50.07311 26804 ft 459 kts 153°
2026-04-27 17:21 27.56527 50.09347 26806 ft 460 kts 153°
2026-04-27 17:21 27.53888 50.11383 26790 ft 460 kts 153°
2026-04-27 17:21 27.51247 50.13418 26794 ft 460 kts 153°
2026-04-27 17:21 27.48602 50.15453 26797 ft 461 kts 153°
2026-04-27 17:22 27.45950 50.17489 26806 ft 461 kts 153°
2026-04-27 17:22 27.43302 50.19534 26808 ft 462 kts 152°
2026-04-27 17:22 27.40673 50.21622 26809 ft 463 kts 152°
2026-04-27 17:22 27.38061 50.23746 26810 ft 464 kts 151°
2026-04-27 17:23 27.35462 50.25885 26688 ft 462 kts 151°
2026-04-27 17:23 27.32871 50.28024 25914 ft 463 kts 151°
2026-04-27 17:23 27.30263 50.30164 24923 ft 462 kts 151°
2026-04-27 17:23 27.27648 50.32292 23448 ft 467 kts 151°
2026-04-27 17:24 27.25025 50.34410 21683 ft 473 kts 150°
2026-04-27 17:24 27.22345 50.36565 20151 ft 474 kts 149°
2026-04-27 17:24 27.19671 50.38718 18964 ft 469 kts 148°
2026-04-27 17:24 27.17048 50.40837 17799 ft 460 kts 147°
2026-04-27 17:25 27.14475 50.42916 16553 ft 452 kts 147°
2026-04-27 17:25 27.11946 50.44955 15407 ft 443 kts 147°
2026-04-27 17:25 27.09505 50.46930 14947 ft 418 kts 147°
2026-04-27 17:25 27.07212 50.48786 14442 ft 398 kts 147°
2026-04-27 17:26 27.04984 50.50581 13734 ft 388 kts 147°
2026-04-27 17:26 27.02855 50.52290 13517 ft 364 kts 147°
2026-04-27 17:26 27.00866 50.53889 13388 ft 340 kts 147°
2026-04-27 17:26 26.98930 50.55239 13238 ft 316 kts 158°
2026-04-27 17:27 26.96952 50.56083 13049 ft 296 kts 169°
2026-04-27 17:27 26.94965 50.56491 12625 ft 286 kts 180°
2026-04-27 17:27 26.93021 50.56582 12355 ft 272 kts 182°
2026-04-27 17:27 26.91177 50.56663 12139 ft 260 kts 182°
2026-04-27 17:28 26.89383 50.56746 12011 ft 258 kts 182°
2026-04-27 17:28 26.87596 50.56828 12017 ft 257 kts 182°
2026-04-27 17:28 26.84023 50.56990 12020 ft 257 kts 182°
2026-04-27 17:29 26.82235 50.57073 12021 ft 257 kts 182°
2026-04-27 17:29 26.80449 50.57155 11987 ft 256 kts 182°
2026-04-27 17:29 26.78674 50.57237 11726 ft 255 kts 182°
2026-04-27 17:29 26.76909 50.57319 11388 ft 252 kts 181°
2026-04-27 17:30 26.75754 50.57495 11112 ft 256 kts 165°
2026-04-27 17:30 26.72990 50.60017 10566 ft 262 kts 134°
2026-04-27 17:30 26.71808 50.61563 10285 ft 261 kts 133°
2026-04-27 17:31 26.70261 50.63614 9930 ft 259 kts 133°
2026-04-27 17:31 26.69482 50.64650 9747 ft 258 kts 133°
2026-04-27 17:31 26.68327 50.66188 9404 ft 258 kts 133°
2026-04-27 17:31 26.67174 50.67726 9071 ft 258 kts 133°
2026-04-27 17:32 26.66021 50.69262 8770 ft 257 kts 135°
2026-04-27 17:32 26.63040 50.71027 8145 ft 242 kts 172°
2026-04-27 17:32 26.61393 50.71431 7836 ft 242 kts 172°
2026-04-27 17:33 26.59755 50.71830 7530 ft 241 kts 171°
2026-04-27 17:33 26.58142 50.72224 7208 ft 240 kts 171°
2026-04-27 17:33 26.56513 50.72622 6894 ft 239 kts 171°
2026-04-27 17:33 26.54889 50.73020 6605 ft 238 kts 171°
2026-04-27 17:34 26.53273 50.73415 6312 ft 237 kts 171°
2026-04-27 17:34 26.51665 50.73809 6059 ft 234 kts 171°
2026-04-27 17:34 26.50071 50.74199 5900 ft 235 kts 171°
2026-04-27 17:34 26.48479 50.74588 5592 ft 234 kts 171°
2026-04-27 17:35 26.46898 50.74973 5301 ft 232 kts 171°
2026-04-27 17:35 26.45317 50.75224 5013 ft 227 kts 182°
2026-04-27 17:35 26.43760 50.75094 4735 ft 222 kts 194°
2026-04-27 17:35 26.42292 50.74610 4448 ft 219 kts 205°
2026-04-27 17:36 26.40945 50.73836 4146 ft 217 kts 210°
2026-04-27 17:36 26.39651 50.72975 3835 ft 216 kts 219°
2026-04-27 17:36 26.38672 50.71718 3528 ft 216 kts 240°
2026-04-27 17:36 26.38249 50.70120 3229 ft 219 kts 269°
2026-04-27 17:37 26.38684 50.68503 3031 ft 222 kts 297°
2026-04-27 17:37 26.39547 50.67040 3008 ft 228 kts 302°
2026-04-27 17:37 26.40475 50.65592 3009 ft 229 kts 303°
2026-04-27 17:37 26.41405 50.64155 3004 ft 224 kts 303°
2026-04-27 17:38 26.42308 50.62790 3004 ft 215 kts 303°
2026-04-27 17:38 26.43193 50.61461 3018 ft 212 kts 303°
2026-04-27 17:38 26.44071 50.60152 3013 ft 210 kts 303°
2026-04-27 17:38 26.44942 50.58848 3013 ft 209 kts 303°
2026-04-27 17:39 26.45805 50.57562 3013 ft 210 kts 303°
2026-04-27 17:39 26.46672 50.56254 3017 ft 209 kts 297°
2026-04-27 17:39 26.47052 50.54756 3014 ft 199 kts 261°
2026-04-27 17:39 26.46552 50.53372 3017 ft 193 kts 225°
2026-04-27 17:40 26.45535 50.52405 3020 ft 193 kts 215°
2026-04-27 17:40 26.44439 50.51549 3017 ft 192 kts 213°
2026-04-27 17:40 26.43335 50.50713 3011 ft 192 kts 213°
2026-04-27 17:40 26.42224 50.49879 3010 ft 192 kts 213°
2026-04-27 17:41 26.41105 50.49062 3007 ft 192 kts 206°
2026-04-27 17:41 26.39848 50.48575 3006 ft 191 kts 195°
2026-04-27 17:41 26.38561 50.48234 2833 ft 190 kts 192°
2026-04-27 17:41 26.37248 50.48182 2745 ft 192 kts 172°
2026-04-27 17:42 26.35998 50.48665 2626 ft 188 kts 152°
2026-04-27 17:42 26.35022 50.49607 2427 ft 185 kts 131°
2026-04-27 17:42 26.34319 50.50797 2214 ft 182 kts 126°
2026-04-27 17:42 26.33645 50.51971 1990 ft 178 kts 126°
2026-04-27 17:43 26.32985 50.53119 1771 ft 173 kts 126°
2026-04-27 17:43 26.32349 50.54224 1561 ft 165 kts 125°
2026-04-27 17:43 26.31735 50.55291 1353 ft 161 kts 126°
2026-04-27 17:43 26.31150 50.56308 1184 ft 149 kts 126°
2026-04-27 17:44 26.30602 50.57257 964 ft 142 kts 126°
2026-04-27 17:44 26.30085 50.58184 805 ft 140 kts 123°
2026-04-27 17:44 26.29574 50.59109 648 ft 141 kts 125°
2026-04-27 17:44 26.29027 50.60007 470 ft 140 kts 123°
2026-04-27 17:45 26.28512 50.60917 275 ft 140 kts 123°
2026-04-27 17:45 26.27979 50.61823 68 ft 140 kts 124°
2026-04-27 17:45 26.27481 50.62671 15 ft 114 kts 120°
2026-04-27 17:45 26.27155 50.63249 13 ft 63 kts 123°
2026-04-27 17:46 26.26994 50.63494 13 ft 21 kts 164°
2026-04-27 17:46 26.26938 50.63469 12 ft 7 kts 211°
2026-04-27 17:46 26.26899 50.63442 12 ft 6 kts 213°
2026-04-27 17:46 26.26865 50.63417 12 ft 5 kts 213°
2026-04-27 17:47 26.26838 50.63398 13 ft 4 kts 213°
2026-04-27 17:47 26.26827 50.63390 13 ft 2 kts 213°
2026-04-27 17:47 26.26777 50.63369 14 ft 14 kts 179°
2026-04-27 17:47 26.26716 50.63439 14 ft 13 kts 122°
2026-04-27 17:48 26.26667 50.63524 15 ft 13 kts 122°
2026-04-27 17:48 26.26616 50.63613 15 ft 14 kts 123°
2026-04-27 17:48 26.26579 50.63676 14 ft 6 kts 123°
2026-04-27 17:48 26.26554 50.63682 14 ft 5 kts 204°
2026-04-27 17:49 26.26527 50.63663 15 ft 4 kts 212°
2026-04-27 17:49 26.26506 50.63648 14 ft 0 kts 212°